Location: Newark
(39.8867°N, 94.3600°W)
Time: 07:26:56
(UTC+00:00)

N. Korean satellite - Pass Details

Date: 29 January 2020
Orbit: 456 x 505 km, 97.2° (Epoch: 20 February)

Event Time Altitude Azimuth Distance (km) Brightness Sun altitude
Rises 00:27:17 0° 216° (SW) 2,460 11.0 -10.9°
Reaches altitude 10° 00:31:16 10° 263° (W) 1,597 10.7 -11.7°
Maximum altitude 00:31:36 10° 269° (W) 1,591 10.6 -11.7°
Drops below altitude 10° 00:31:56 10° 275° (W) 1,599 10.5 -11.8°
Sets 00:35:58 0° 322° (NW) 2,489 10.5 -12.5°
